Kankakee, IL (60901)

5:11 AM CDT on August 04, 2015 (GMT -0500)
East Bradley | | Change Station
CLOSE
Current Station
Personal Weather Station
Location: Bradley, IL
Elevation: 650 ft
Nearby Weather Stations

Elev 650 ft 41.14 °N, 87.85 °W | Updated 11 minutes ago

Clear
Clear
62.1 °F
Feels Like 62.1 °F
N
0.0
Wind Variable Wind from West

Today
High -- | Low -- °F
--% Chance of Precip.
Yesterday
High -- | Low -- °F
Precip. -- in
5:49 AM 8:04 PM
Waning Gibbous, 79% visible
Pressure 29.95 in
Visibility 10.0 miles
Clouds Clear
Dew Point 58 °F
Humidity 85%
Rainfall 0.00 in
Snow Depth Not available.
UV 0 out of 12
Pollen 6.30 out of 12
Air Quality Not available.
Flu Activity Not available.
METAR KIKK 040955Z AUTO 27004KT 10SM CLR 15/14 A2995 RMK AO2 T01520137

More Conditions Fewer Conditions

Pressure 29.95 in
Visibility 10.0 miles
Clouds Clear
Dew Point 58 °F
Humidity 85%
Rainfall 0.00 in
Snow Depth Not available.
UV 0 out of 12
Pollen 6.30 out of 12
Air Quality Not available.
Flu Activity Not available.
METAR KIKK 040955Z AUTO 27004KT 10SM CLR 15/14 A2995 RMK AO2 T01520137

More Conditions Fewer Conditions

10-Day Weather Forecast

×

Almanac

Astronomy

Aug. 04, 2015 Rise Set
Actual Time
Civil Twilight
Nautical Twilight
Astronomical Twilight
Moon
Length of Visible Light
Length of Day
Tomorrow will be .
, % of the Moon is Illuminated

Today's Extremes

State Highs State Lows

Community

WunderPhotos

Upload Photos

1,843,883 photos uploaded!

WunderBlogs® & News

Nearby

Air Quality

  Air Quality AQ Index Pollutant
Not available.

Snow Depth

Station Depth Elevation

Earthquake Activity

City Distance Mag. Time & Date
Minimum magnitude displayed is 2.5.

Coastal Water Temperatures

Place Temperature

Stations

Nearby Weather Stations

Station Location Temp. Windchill Dew Point Humidity Wind Precip. Elev Updated Type